Regional Weather Roundup
Issued by NWS Cleveland, OH

Home | Current Version | Previous Version | Text Only | Print | Product List | Glossary Off
Versions: 1 2 3 4 5 6 7 8 9 10 11 12 13 14 15 16 17 18 19 20 21 22 23 24 25 26 27 28 29 30 31 32 33 34 35 36 37 38 39 40 41 42 43 44 45 46 47 48 49 50

126
ASUS41 KCLE 240410
RWRCLE
OHIO REGIONAL WEATHER ROUNDUP
NATIONAL WEATHER SERVICE WILMINGTON, OH
1200 AM EDT WED MAY 24 2017

NOTE: "FAIR" INDICATES FEW OR NO CLOUDS BELOW 12,000 FEET WITH NO
SIGNIFICANT WEATHER AND/OR OBSTRUCTIONS TO VISIBILITY.

OHZ001>008-015>018-024>027-034-035-043-044-240500-
   NORTHWEST OHIO

CITY           SKY/WX    TMP DP  RH WIND       PRES   REMARKS
DEFIANCE       FAIR      61  47  59 NE6       29.67F
FINDLAY        FAIR      63  47  55 NE9       29.64F
TOLEDO EXPRESS FAIR      60  49  66 NE8       29.67F
TOLEDO EXEC    FAIR      62  49  62 E8        29.67F
LIMA           FAIR      60  53  77 E8        29.64F
$$

OHZ009>014-019>023-028>033-038-089-240500-
   NORTHEAST OHIO

CITY           SKY/WX    TMP DP  RH WIND       PRES   REMARKS
CLE-HOPKINS    MOCLDY    66  50  56 E7        29.70F
CLE-LAKEFRONT  FAIR      67  47  48 E7        29.67F
CUY CO. ARPT   NOT AVBL
LORAIN-ELYRIA  FAIR      59  50  72 CALM      29.68F
ASHTABULA      FAIR      57  51  80 CALM      29.73S
AKRON-CANTON   MOCLDY    65  51  60 SE10      29.70F
WOOSTER        MOCLDY    63  54  72 SE8       29.69F
MANSFIELD      FAIR      63  52  67 E5        29.67F
YOUNGSTOWN     CLOUDY    62  49  62 SE8       29.72S
$$

OHZ042-051>053-060>062-070>072-077>081-240500-
  SOUTHWEST OHIO

CITY           SKY/WX    TMP DP  RH WIND       PRES   REMARKS
CINC-COVINGTON CLOUDY    66  59  78 SE10      29.63F
CINC-LUNKEN    FAIR      64  60  87 S6        29.63F
HAMILTON       FAIR      68  58  70 CALM      29.64F
DAYTON         CLOUDY    63  51  65 SE8       29.65F
WRIGHT-PAT AFB CLOUDY    65  53  65 CALM      29.64F
DAYTON GENERAL FAIR      64  54  69 SE7       29.63F
WILMINGTON     FAIR      61  57  87 SE6       29.65F
$$

OHZ036-037-039>041-045>050-054>059-063>069-073>076-082>088-240500-
  CENTRAL AND SOUTHEAST OHIO

CITY           SKY/WX    TMP DP  RH WIND       PRES   REMARKS
COLUMBUS       CLOUDY    66  59  78 SE7       29.67S
OSU AIRPORT    FAIR      66  59  78 S7        29.66F
BOLTON FIELD   FAIR      64  59  85 S8        29.67S
RICKENBACK AFB FAIR      62  60  93 S5        29.67R
NEWARK         MOCLDY    63  58  83 SE6       29.67F
MARION         FAIR      63  52  67 SE5       29.66F
LANCASTER      FAIR      65  59  81 SE12      29.68F
ZANESVILLE     CLOUDY    64  58  80 SE5       29.69F
NEW PHILLY     MOCLDY    64  56  75 S3        29.70S
$$




USA.gov is the U.S. government's official web portal to all federal, state and local government web resources and services.